weather.gov     
National Weather Service

Regional Weather Roundup
NWS Homepage
This page is being discontinued on March 12, 2014.
The same data is available at this site. Please update your bookmarks.
Thank you, and we apologize for the inconvenience.
Please send an email to SR-SRH.Webmaster@noaa.gov with any concerns.


Current Version
Previous Version:    01  02  03  04  05  06  07  08  09  10  11  12  13  14  15  16  17  18  19  20  21  22  23  24  25  26  27  28  29  30  
   31  32  33  34  35  36  37  38  39  40  41  42  43  44  45  46  47  48  49  50  51  52  53  
[Printable]
445
ASUS43 KLSX 010807
RWRMO

WEATHER SUMMARY FOR MISSOURI
NATIONAL WEATHER SERVICE SPRINGFIELD MO
200 AM CST SUN FEB 01 2015

NOTE: "FAIR" INDICATES FEW OR NO CLOUDS BELOW 12,000 FEET WITH NO
       SIGNIFICANT WEATHER AND/OR OBSTRUCTIONS TO VISIBILITY.
       CURRENT SKY AND/OR WEATHER CONDITIONS ARE NOT AVAILABLE FOR
       CHILLICOTHE AND FARMINGTON.

MOZ001>031-035>038-043-044-053-054-010900-
...NORTHERN AND WESTERN MISSOURI...

CITY           SKY/WX    TMP DP  RH WIND       PRES   REMARKS
KANSAS CTY INT LGT SNOW  33  33 100 S12       29.79F FOG     WCI  24
KANSAS C DTWN  FLURRIES  34  32  92 VRB3      29.81F
LEE`S SUMMIT   LGT SNOW  33  32  96 SE6       29.81F FOG     WCI  28
ST JOSEPH      LGT SNOW  32  32 100 CALM      29.81F FOG
CHILLICOTHE      N/A     33  32  96 SE8       29.85F WCI  26
KIRKSVILLE     LGT SNOW  33  33 100 SE13      29.87F VSB 3/4 WCI  24

$$
MOZ066>068-077>081-088>096-101>105-010900-
...SOUTHWEST MISSOURI...

CITY           SKY/WX    TMP DP  RH WIND       PRES   REMARKS
SPRINGFIELD    RAIN      37  34  89 S14       29.80S FOG     WCI  28
JOPLIN         RAIN      40  38  93 MISG      29.82F FOG

$$
MOZ032>034-039>042-045>050-055>058-069>072-010900-
...CENTRAL MISSOURI...

CITY           SKY/WX    TMP DP  RH WIND       PRES   REMARKS
COLUMBIA       LGT SNOW  33  32  96 E9        29.88F FOG     WCI  25
JEFFERSON CITY LGT RAIN  35  32  88 E9        29.90F FOG     WCI  28
ROLLA          RAIN      34  32  92 SE10      29.83F FOG     WCI  26
SEDALIA        LGT SNOW  34  32  92 SE7       29.86F FOG     WCI  28
WHITEMAN AFB   LGT SNOW  32  32 100 SE7       29.83F FOG     WCI  26
WARRENSBURG    LGT SNOW  32  32 100 E6        29.84F WCI  26
OSAGE BEACH    CLOUDY    36  32  87 NE3       29.86F

$$
MOZ051-052-059>065-010900-
...EAST CENTRAL MISSOURI...

CITY           SKY/WX    TMP DP  RH WIND       PRES   REMARKS
ST LOUIS INTL  LGT RAIN  38  29  70 SE9       29.95F
SPIRIT OF STL  LGT RAIN  34  30  85 E6        29.92F WCI  29
ST CHARLES     CLOUDY    35  31  85 E9        29.95F WCI  28

$$
MOZ072>076-082>087-097>100-106>115-010900-
...SOUTH CENTRAL AND SOUTHEAST MISSOURI...

CITY           SKY/WX    TMP DP  RH WIND       PRES   REMARKS
CAPE GIRARDEAU CLOUDY    41  25  53 SE16      29.97F
FARMINGTON     CLOUDY    39  23  52 S12       29.94F
POPLAR BLUFF   CLOUDY    38  29  70 SE3       29.95F
WEST PLAINS    LGT RAIN  38  27  64 S12       29.88F

$$




U.S. Dept. of Commerce
NOAA National Weather Service
1325 East West Highway
Silver Spring, MD 20910
E-mail: w-nws.webmaster@noaa.gov
Page last modified: May 16, 2007
NATIONAL WEATHER SERVICE: for Safety, for Work, for Fun - FOR LIFE